Terminal Aerodrome Forecast
Issued by NWS

Home | Current Version | Previous Version | Text Only | Print | Product List | Glossary On
Versions: 1 2 3 4 5 6 7 8 9 10 11 12 13 14 15 16 17 18 19 20 21 22 23 24
000
FTUS43 KLSX 241400 AAA
TAFSUS
TAF AMD
KSUS 241404Z 2414/2512 15012G20KT P6SM SCT050 BKN150
     FM242300 16014G22KT 4SM -TSRA OVC035CB
     FM250300 25009KT 6SM -SHRA BR OVC025
     FM250500 27012KT P6SM OVC020=

USA.gov is the U.S. government's official web portal to all federal, state and local government web resources and services.